Location: Alladorf
(49.9620°N, 11.3790°E)
Time: 20:24:27
(UTC+00:00)

COSMOS 2455 - Pass Details

Date: 29 November 2020
Orbit: 900 x 909 km, 67.1° (Epoch: 25 January)

Event Time Altitude Azimuth Distance (km) Brightness Sun altitude
Rises 06:02:17 0° 221° (SW) 3,521 5.8 -7.4°
Reaches altitude 10° 06:04:48 10° 223° (SW) 2,584 5.1 -7.0°
Maximum altitude 06:10:48 73° 308° (NW) 950 2.8 -6.1°
Drops below altitude 10° 06:16:51 10° 34° (NE) 2,604 5.3 -5.3°
Sets 06:19:23 0° 36° (NE) 3,549 6.1 -4.9°
